EW5790 Weather Reports


Display with metric or nautical units.
time (UTC)temp
F
wind
direction
speed
MPH
gust
MPH
rain 1hr
in
rain 24hr
in
rain mn
in
humidity
%
barometer
mb
20260502163045 58 284 0.0 0.0 0.00 0.01 0.01 48 1017.5
20260502161528 59 55 0.0 0.0 0.00 0.01 0.01 49 1017.5
20260502151524 58 5 0.0 0.0 0.00 0.01 0.01 52 1017.7
20260502123033 41 323 0.0 0.0 0.00 0.01 0.01 1 1017.8
20260502121516 41 323 0.0 0.0 0.00 0.01 0.01 1 1017.9
20260502114507 36 313 0.0 0.0 0.01 0.01 0.01 1 1017.7
20260502113004 36 313 0.0 0.0 0.01 0.01 0.01 1 1017.6
20260502111603 36 313 0.0 0.0 0.01 0.01 0.01 1 1017.3
20260502110055 36 313 0.0 0.0 0.00 0.00 0.00 1 1017.2
20260502104550 36 313 0.0 0.0 0.00 0.00 0.00 1 1017.1
20260502103047 36 313 0.0 0.0 0.00 0.00 0.00 1 1017.1
20260502101551 37 313 0.0 0.0 0.00 0.00 0.00 1 1016.9
20260502091526 37 313 0.0 0.0 0.00 0.00 0.00 1 1016.8
20260502070050 37 313 0.0 0.0 0.00 0.00 0.00 1 1017.1
20260502064543 38 313 0.0 0.0 0.00 0.00 0.00 1 1017.2
20260502063038 38 313 0.0 0.0 0.00 0.00 0.00 1 1017.1
20260502061538 38 313 0.0 0.0 0.00 0.00 0.00 1 1017.0
20260502060029 38 313 0.0 0.0 0.00 0.00 0.00 1 1016.8
20260502054524 38 313 0.0 0.0 0.00 0.00 0.00 1 1017.0
20260502053019 39 313 0.0 0.0 0.00 0.00 0.00 1 1017.4
20260502051522 39 313 0.0 0.0 0.00 0.00 0.00 1 1017.4
20260502050010 39 313 0.0 0.0 0.00 0.00 0.00 1 1017.4
20260502044506 39 313 0.0 0.0 0.00 0.00 0.00 1 1017.2
20260502043002 40 313 0.0 0.0 0.00 0.00 0.00 1 1017.6
20260502041604 40 313 0.0 0.0 0.00 0.00 0.00 4 1017.6
20260502040057 41 313 0.0 0.0 0.00 0.00 0.00 10 1017.5
20260502034549 42 313 0.0 0.0 0.00 0.00 0.00 24 1017.7
20260502033044 42 313 0.0 0.0 0.00 0.00 0.00 28 1017.6
20260502031540 43 313 0.0 0.0 0.00 0.00 0.00 36 1017.6
20260502030035 44 313 0.0 0.0 0.00 0.00 0.00 43 1017.5
20260502024531 45 313 0.0 0.0 0.00 0.00 0.00 54 1017.4
20260502023027 45 313 0.0 0.0 0.00 0.00 0.00 57 1017.1
20260502021522 46 313 0.0 0.0 0.00 0.00 0.00 68 1017.1
20260502020018 47 313 0.0 0.0 0.00 0.00 0.00 69 1016.9
20260502014513 48 313 0.0 0.0 0.00 0.00 0.00 70 1016.7
20260502013010 50 313 0.0 0.0 0.00 0.00 0.00 68 1016.3
20260502011506 52 313 0.0 0.0 0.00 0.00 0.00 66 1016.3
20260502010007 54 309 0.0 0.0 0.00 0.00 0.00 62 1015.6
20260502004504 55 309 0.0 0.0 0.00 0.00 0.00 53 1015.0
20260502003005 57 326 0.0 0.0 0.00 0.00 0.00 49 1014.7
20260502001505 58 329 0.0 0.0 0.00 0.00 0.00 46 1014.6
20260502000004 59 338 0.0 0.0 0.00 0.00 0.00 44 1014.3
20260501234503 60 344 0.0 0.0 0.00 0.00 0.00 42 1014.3
20260501233003 60 325 0.0 0.0 0.00 0.00 0.00 41 1013.9
20260501231502 61 323 0.0 0.0 0.00 0.00 0.00 39 1013.9
20260501230002 62 331 0.0 0.0 0.00 0.00 0.00 38 1014.0
20260501224606 62 355 0.0 0.0 0.00 0.00 0.00 38 1013.8
20260501223107 63 275 0.0 0.0 0.00 0.00 0.00 38 1013.7
20260501221555 63 339 0.0 0.0 0.00 0.00 0.00 39 1013.5
20260501220051 63 333 0.0 0.0 0.00 0.00 0.00 39 1013.6
20260501214554 63 282 0.0 0.0 0.00 0.00 0.00 41 1013.8
20260501213041 64 318 0.0 0.0 0.00 0.00 0.00 40 1013.9
20260501211539 63 335 0.0 0.0 0.00 0.00 0.00 44 1013.7
20260501210034 63 287 0.0 0.0 0.00 0.00 0.00 45 1013.9
20260501204538 63 294 0.0 0.0 0.00 0.00 0.00 48 1013.9
20260501203023 62 339 0.0 0.0 0.00 0.00 0.00 52 1014.2
20260501201518 62 333 0.0 0.0 0.00 0.00 0.00 54 1014.1
20260501200020 62 323 0.0 0.0 0.00 0.00 0.00 53 1014.3
20260501194511 63 341 0.0 0.0 0.00 0.00 0.00 52 1014.5
20260501193004 63 304 0.0 0.0 0.00 0.00 0.00 53 1014.6
20260501191601 63 327 0.0 0.0 0.00 0.00 0.00 57 1014.5
20260501190104 62 259 0.0 0.0 0.00 0.00 0.00 59 1014.3
20260501184552 63 351 0.0 0.0 0.00 0.00 0.00 58 1014.4
20260501183047 63 323 0.0 0.0 0.00 0.00 0.00 58 1014.6
20260501181549 62 330 0.0 0.0 0.00 0.00 0.00 59 1014.5
20260501180038 64 292 0.0 0.0 0.00 0.00 0.00 56 1014.5
20260501174541 64 312 0.0 0.0 0.00 0.00 0.00 52 1014.6
20260501173037 64 348 0.0 0.0 0.00 0.00 0.00 50 1014.7
20260501171530 64 283 0.0 0.0 0.00 0.00 0.00 49 1014.6